METAR Formatted Surface Weather Observation
Issued by NWS

Home | Current Version | Previous Version | Text Only | Print | Product List | Glossary On
Versions: 1 2 3 4 5 6 7 8 9 10 11 12 13 14 15 16 17 18 19 20 21 22 23 24 25 26 27 28 29 30 31 32 33 34 35 36 37 38 39 40 41 42 43 44 45 46 47 48 49 50
000
SAUS45 KSLC 040223
MTRU16
A2970 RMK AO2 PK WND 25028/0003 TSE21B53 SLP692 P0002 T02390128 $
09/03/15 19:34:26  SPECI KU16 040134Z AUTO 18016G23KT 10SM CLR 27/06 A2970
RMK AO2 TSE31 $
METAR KU16 040158Z AUTO 17011KT 10SM CLR 25/05 A2969 RMK



USA.gov is the U.S. government's official web portal to all federal, state and local government web resources and services.